Weather in Yarkovo

Russia / Novosibirsk Oblast     54°48′25″N   82°35′55″E
temp.,
°C
wind,
m/s
gust,
m/s
humid.,
%
clouds,
%
prec.,
mm/h
press.,
hPa
HPBL,
m
28 february, sun
sun2801:00−29sw349858 0.0 103942
04:00−30ssw339971 0.0 103824
07:00−29s349767 0.0 103932
10:00−27sse339667 0.0 103771
13:00−22se469156 0.0 1034295
16:00−17sse488997 0.0 1031499
19:00−15se379699 0.2 1027299
22:00−13se4996100 0.4 1025327
1 march, mon
mon101:00−12se5995100 0.9 1021324
04:00−11se51094100 0.4 1017329
07:00−8se51195100 1.5 1014481
10:00−6sse61095100 1.9 1010583
13:00−1sse51098100 4.6 1008492
16:00+1sw81399100 2.7 1006649
19:000wsw61099100 4.9 1006512
22:00−3w3697100 1.9 1007298
2 march, tue
tue201:00−10n469597 2.9 1009163
04:00−12n359696 0.4 1011153
07:00−15n239695 0.9 101441
10:00−15nnw239688 0.1 1016104
13:00−13w249091 0.2 1018351
16:00−11wsw3590100 0.1 1018480
19:00−12wsw249599 0.2 1018124
22:00−15w129595 0.1 101720
3 march, wed
wed301:00−16sse019698 0.1 101620
04:00−14ene1196100 0.3 101527
07:00−15ene1197100 0.4 101620
10:00−13nne1195100 0.3 101671
13:00−11w1191100 0.6 1017264
16:00−10wsw2491100 0.2 1018413
19:00−12wsw479498 0.4 1020163
22:00−15wsw349478 0.0 102246
4 march, thu
thu401:00−16ssw469787 0.1 1024127
04:00−20ssw349831 0.0 102459
07:00−20s479735 0.0 1024115
10:00−16sse4109393 0.0 1023265
13:00−11sse699195 0.0 1022423
16:00−8s61089100 0.0 1020603
19:00−8sse51290100 0.0 1019420
22:00−8s51288100 0.0 1016372